Location: Unspecified
(19.4326°N, 99.1332°W)
Time: 06:25:25
(UTC-05:00)

Hubble Space Telescope - Visible Passes

Search period start: 29 May 2017 00:00
Search period end: 08 June 2017 00:00
Orbit: 538 x 542 km, 28.5° (Epoch: 28 May)

Date Brightness Start Highest point End Pass type
(mag) Time Alt. Az. Time Alt. Az. Time Alt. Az.
29 May 1.6 20:58:47 10° W 21:02:47 49° NNW 21:06:48 10° ENE visible
29 May 3.1 22:41:02 10° WNW 22:43:26 22° NNW 22:43:26 22° NNW visible
30 May 2.0 20:48:54 10° W 20:52:47 40° NNW 20:56:41 10° NE visible
30 May 2.9 22:31:11 10° WNW 22:34:15 23° N 22:34:15 23° N visible
31 May 2.3 20:39:03 10° W 20:42:49 34° NNW 20:46:35 10° NE visible
31 May 2.8 22:21:18 10° NW 22:24:34 22° N 22:24:55 22° N visible
01 Jun 2.7 22:11:23 10° NW 22:14:39 22° N 22:15:28 21° NNE visible
02 Jun 2.7 22:01:25 10° NW 22:04:44 23° N 22:05:56 20° NNE visible
03 Jun 2.6 21:51:24 10° NW 21:54:48 24° N 21:56:20 20° NE visible
04 Jun 2.4 21:41:21 10° NW 21:44:52 27° N 21:46:42 19° NE visible
05 Jun 2.2 21:31:16 10° NW 21:34:55 30° NNE 21:37:04 19° ENE visible
05 Jun 3.9 23:12:14 10° WNW 23:12:25 11° WNW 23:12:25 11° WNW visible
06 Jun 2.0 21:21:10 10° NW 21:24:57 35° NNE 21:27:25 18° ENE visible
06 Jun 3.7 23:02:12 10° WNW 23:02:47 14° WNW 23:02:47 14° WNW visible
07 Jun 1.6 21:11:03 10° NW 21:14:58 42° NNE 21:17:47 17° E visible
07 Jun 3.4 22:52:14 10° WNW 22:53:08 16° W 22:53:08 16° W visible
